This demonstration page uses our WeatherBlox Daily Observations layout. Learn more.

Left ArrowRight Arrow

38.20091, -84.87328

Hourly Observations for October 2, 2022

Temp ( °F °C ) Dew Point ( °F °C ) Humidity (%) Winds ( mph kmh ) Pressure ( in mb ) Visibility ( mi km ) Precip ( " mm )
12:53 am 00:53 Clear 61 16.1 43 6.1 51 51 N 6 9 30.05 1018 10 16 0.00 0.00
1:53 am 01:53 Clear 61 16.1 42 5.6 50 50 N 7 11 30.04 1017 10 16 0.00 0.00
2:53 am 02:53 Clear 59 15 43 6.1 55 55 N 5 7 30.05 1018 10 16 0.00 0.00
3:53 am 03:53 Clear 57 13.9 41 5 55 55 N 6 9 30.05 1018 10 16 0.00 0.00
4:53 am 04:53 Clear 54 12.2 41 5 61 61 NNW 6 9 30.06 1018 10 16 0.00 0.00
5:53 am 05:53 Clear 53 11.7 43 6.1 68 68 NNW 7 11 30.07 1018 10 16 0.00 0.00
6:53 am 06:53 Clear 54 12.2 46 7.8 74 74 N 7 11 30.09 1019 10 16 0.00 0.00
7:53 am 07:53 Sunny 54 12.2 47 8.3 77 77 N 7 11 30.11 1020 10 16 0.00 0.00
8:53 am 08:53 Sunny 56 13.3 49 9.4 77 77 N 7 11 30.13 1020 10 16 0.00 0.00
9:53 am 09:53 Sunny 60 15.6 50 10 69 69 N 9 15 30.14 1021 10 16 0.00 0.00
10:53 am 10:53 Mostly Sunny 63 17.2 51 10.6 65 65 NE 10 17 30.15 1021 10 16 0.00 0.00
11:53 am 11:53 Mostly Cloudy 67 19.4 51 10.6 57 57 undefined N/A 30.16 1021 10 16 0.00 0.00
12:22 pm 12:22 Partly Cloudy 67 19.4 51 10.6 57 57 NNE 7 11 30.15 1021 10 16 0.00 0.00
12:53 pm 12:53 Partly Cloudy 68 20 51 10.6 55 55 VRB 7 11 30.15 1021 10 16 0.00 0.00
1:53 pm 13:53 Mostly Sunny 70 21.1 50 10 49 49 N 8 13 30.14 1021 10 16 0.00 0.00
2:53 pm 14:53 Mostly Sunny 73 22.8 51 10.6 46 46 N 12 19 30.13 1020 10 16 0.00 0.00
3:53 pm 15:53 Mostly Sunny 73 22.8 50 10 44 44 N 13 20 30.13 1020 10 16 0.00 0.00
4:53 pm 16:53 Partly Cloudy 72 22.2 50 10 46 46 N 12 19 30.14 1021 10 16 0.00 0.00
5:53 pm 17:53 Partly Cloudy 71 21.7 50 10 47 47 N 9 15 30.16 1021 10 16 0.00 0.00
6:53 pm 18:53 Mostly Sunny 69 20.6 49 9.4 49 49 N 8 13 30.17 1022 10 16 0.00 0.00
7:53 pm 19:53 Clear 65 18.3 49 9.4 56 56 N 6 9 30.18 1022 10 16 0.00 0.00
8:53 pm 20:53 Clear 63 17.2 49 9.4 60 60 N 5 7 30.19 1023 10 16 0.00 0.00
9:53 pm 21:53 Clear 61 16.1 49 9.4 64 64 NNE 5 7 30.21 1023 10 16 0.00 0.00
10:53 pm 22:53 Clear 59 15 49 9.4 69 69 NE 8 13 30.22 1023 10 16 0.00 0.00
11:53 pm 23:53 Clear 58 14.4 48 8.9 70 70 NNE 6 9 30.22 1023 10 16 0.00 0.00

Powered by AerisWeather